AGROMETEOROLOŠKI PORTAL

vinorodna pokrajina

Temelj dobrega kmetovanja

Pregled podatkov za lokacijo Šentilj DRSI, meteorološka postaja 73

Pregled senzorjev na lokaciji

ID Ime Zadnja
vrednost
Datum in čas
meritve
(lokalni čas)
Tip
senzorja
6262 Zračni tlak (hPa) 974 hPa 30.9.2022 12:00 DRSI
6259 Relativna zračna vlaga (2 m) (% RH) 90 % RH 30.9.2022 12:00 DRSI
6258 Temperatura (2 m) (°C) 15 °C 30.9.2022 12:00 DRSI
6261 Smer vetra (2 m) (°) 112 ° 30.9.2022 12:00 DRSI
6260 Hitrost vetra (2 m) (km/h) 4 km/h 30.9.2022 12:00 DRSI

Pregled podatkov zadnjih 24 ur

Zap.
št.
Datum in čas
(lokalni čas)
Šentilj DRSI
Zračni
tlak
Relativna
zračna
vlaga
(2
m)
Temperatura
(2
m)
Smer
vetra
(2
m)
Hitrost
vetra
(2
m)
1 30.9.2022 12:00 973,6 90 15 112 4
2 30.9.2022 11:30 973 93,7 15 141,9 2
3 30.9.2022 11:00 973,3 99,7 14,7 172,8 2,6
4 30.9.2022 10:30 972,7 100 13,7 189,7 1,7
5 30.9.2022 10:00 972,7 100 11,3 135 1,9
6 30.9.2022 09:30 972,7 100 11 315 0,7
7 30.9.2022 09:00 972,7 100 11 0
8 30.9.2022 08:30 972 100 10 0,4
9 30.9.2022 08:00 971,7 100 10 270 0,4
10 30.9.2022 07:30 971,4 100 10 0 0,4
11 30.9.2022 07:00 970,7 100 10 0
12 30.9.2022 06:30 970,7 100 10 0
13 30.9.2022 06:00 970,7 100 10 45 0,7
14 30.9.2022 05:30 969,8 100 10 0,4
15 30.9.2022 05:00 970,4 100 10 180 1,7
16 30.9.2022 04:30 970,1 100 10 22 1,9
17 30.9.2022 04:00 969,8 100 10 0 2,6
18 30.9.2022 03:30 969,8 100 10 7,3 2,6
19 30.9.2022 03:00 969,8 100 10 0 2,6
20 30.9.2022 02:30 970,1 100 10 0,4
21 30.9.2022 02:00 969,8 100 10 22,5 0,7
22 30.9.2022 01:30 969,8 100 10 0
23 30.9.2022 01:00 969,8 100 10 0
24 30.9.2022 00:30 969,8 100 10 0,4
25 30.9.2022 00:00 969,8 100 10 22 1
26 29.9.2022 23:30 969,8 100 10 315 0,7
27 29.9.2022 23:00 969,8 100 10 0 2
28 29.9.2022 22:30 969,8 100 10 0 0,7
29 29.9.2022 22:00 969,8 100 10 0 0,7
30 29.9.2022 21:30 969,8 100 10 0 2,6
31 29.9.2022 21:00 969,8 100 10 135 1,7
32 29.9.2022 20:30 969,8 100 10 0
33 29.9.2022 20:00 968,8 100 10 22 0,4
34 29.9.2022 19:30 968,8 100 10 135 0,4
35 29.9.2022 19:00 968,8 100 10 135 2,6
36 29.9.2022 18:30 968,8 100 10 0 0,4
37 29.9.2022 18:00 968,8 100 10 135 0,4
38 29.9.2022 17:30 968,8 100 10 292 2
39 29.9.2022 17:00 968,8 100 10,3 22 1
40 29.9.2022 16:30 968,8 100 10,3 0 2,3
41 29.9.2022 16:00 967,8 100 10 247,5 1,3
42 29.9.2022 15:30 968,2 100 10 35,5 3,6
43 29.9.2022 15:00 968,8 100 10,3 348,5 1,3
44 29.9.2022 14:30 967,8 100 10 11 1,3
45 29.9.2022 14:00 968,8 100 10 270 1,7
46 29.9.2022 13:30 968,8 100 10 180 2